Terminal Aerodrome Forecast
Issued by NWS Chicago, IL

Home | Current Version | Previous Version | Graphics & Text | Print | Product List | Glossary On
Versions: 1 2 3 4 5 6 7 8 9 10 11 12 13 14 15 16 17 18 19 20 21 22 23 24 25 26 27 28 29 30 31 32
000
FTUS43 KLOT 030307 AAB
TAFRFD
TAF AMD
KRFD 030307Z 0303/0324 25015G20KT P6SM VCTS SCT040CB BKN150
     FM030400 28010KT P6SM BKN040 BKN100
     FM030900 33008KT P6SM FEW025
     FM031500 30011G17KT P6SM FEW250=

USA.gov is the U.S. government's official web portal to all federal, state and local government web resources and services.